Temperature
6 7 7 7 7 7 7 8 8 8 8 9 9 9 9 9 9 9 9 9 9 9 9 10 10 10 10 10 10 10 10 10 10 10 10 10 9 9 9 8 7 7 7
5 6 6 6 6 7 7 7 7 7 8 8 8 8 8 8 8 9 9 9 9 9 9 9 9 9 9 9 9 9 9 9 9 9 9 9 9 8 8 7 7 6 6
5 5 5 6 6 6 6 6 6 7 7 7 7 7 7 8 8 8 8 8 8 8 8 9 9 9 9 9 9 9 9 8 8 8 8 8 8 7 7 6 6 6 6
4 4 5 5 5 5 5 5 5 6 6 6 6 6 6 6 7 7 7 7 7 8 8 8 8 8 8 8 8 8 8 8 8 7 7 7 7 7 6 6 5 5 5
3 4 4 4 4 4 4 4 5 5 5 5 5 5 5 6 6 6 6 6 7 7 7 7 7 7 7 7 7 7 7 7 7 7 7 7 6 6 6 6 5 5 4
3 3 3 3 3 3 3 3 4 4 4 4 4 4 4 5 5 5 5 5 5 6 6 6 6 7 7 7 7 7 6 6 6 6 6 6 6 6 6 5 5 4 3
2 2 2 2 2 2 2 2 3 3 3 3 3 3 3 4 4 4 4 4 4 5 5 5 5 6 6 6 6 6 6 6 6 6 6 6 6 6 6 5 4 4 4
1 1 1 1 1 1 1 1 1 1 2 2 2 2 2 2 3 3 3 3 4 4 4 4 4 5 5 5 5 5 5 5 5 5 5 5 5 5 5 5 4 4 3
1 0 0 0 0 0 0 0 0 0 1 1 1 1 1 2 2 2 2 2 3 3 3 3 3 3 4 4 4 4 4 4 4 4 4 4 4 4 4 4 3 3 2
-0 -0 -0 -1 -1 -1 -1 -1 -1 -1 -1 -0 -0 0 0 1 1 1 1 1 1 1 2 2 2 2 3 3 3 3 3 4 4 4 4 4 4 4 3 3 3 3 3
-1 -1 -1 -1 -2 -2 -2 -2 -2 -2 -2 -1 -1 -1 -1 -1 -0 -0 -0 -0 -0 -0 0 1 1 1 2 2 2 2 3 3 3 3 3 3 3 3 3 2 2 2 2
-1 -2 -2 -2 -2 -2 -3 -2 -2 -3 -2 -2 -2 -2 -2 -2 -2 -1 -1 -1 -1 -1 -1 -0 0 0 1 1 1 2 2 2 2 2 2 2 2 2 2 2 1 1 1
-2 -2 -2 -2 -3 -3 -3 -3 -3 -3 -4 -4 -4 -3 -3 -3 -2 -2 -2 -2 -2 -2 -2 -1 -1 -0 -0 0 1 1 1 1 1 1 1 2 1 1 1 1 1 0 0
-3 -3 -3 -3 -3 -3 -4 -4 -4 -4 -4 -5 -5 -5 -4 -4 -3 -3 -3 -3 -3 -3 -2 -2 -2 -1 -1 -1 -0 -0 0 0 1 1 1 1 1 0 0 0 0 -0 -0
-3 -3 -4 -4 -4 -4 -4 -5 -5 -5 -5 -6 -6 -6 -5 -5 -5 -5 -5 -4 -4 -3 -3 -3 -3 -2 -2 -2 -1 -1 -1 -0 -0 0 0 0 0 -0 -0 -0 -1 -1 -1
-4 -4 -4 -5 -5 -5 -5 -5 -5 -5 -5 -6 -6 -6 -6 -6 -6 -5 -5 -5 -4 -4 -4 -4 -3 -3 -3 -2 -2 -2 -2 -1 -1 -1 -1 -1 -1 -1 -1 -1 -1 -1 -1
-5 -5 -5 -5 -6 -6 -6 -6 -6 -5 -5 -5 -6 -6 -6 -6 -6 -6 -5 -5 -5 -5 -5 -4 -4 -4 -3 -3 -3 -3 -2 -2 -2 -1 -1 -1 -1 -1 -1 -1 -2 -2 -2
-5 -5 -6 -6 -6 -6 -7 -7 -7 -7 -6 -6 -6 -6 -6 -6 -6 -6 -6 -6 -5 -5 -5 -5 -5 -4 -4 -4 -3 -3 -3 -2 -2 -2 -2 -2 -2 -2 -2 -2 -2 -2 -2
-5 -6 -6 -6 -7 -7 -7 -7 -7 -7 -7 -7 -7 -6 -7 -7 -7 -6 -6 -6 -6 -6 -6 -5 -5 -5 -5 -4 -4 -4 -3 -3 -3 -2 -2 -2 -2 -2 -2 -2 -2 -3 -3
-6 -6 -7 -7 -7 -7 -8 -8 -8 -8 -8 -8 -8 -7 -7 -7 -7 -7 -7 -7 -6 -6 -6 -6 -6 -5 -5 -5 -4 -4 -4 -3 -3 -3 -3 -3 -3 -3 -3 -3 -3 -3 -3
-6 -7 -7 -7 -7 -8 -8 -8 -8 -8 -8 -8 -8 -8 -8 -8 -8 -8 -7 -7 -7 -7 -6 -6 -6 -6 -5 -5 -5 -4 -4 -4 -3 -3 -3 -3 -3 -3 -3 -3 -3 -3 -3
-7 -7 -7 -8 -8 -8 -8 -8 -8 -8 -8 -8 -8 -8 -8 -8 -8 -8 -8 -8 -7 -7 -7 -7 -6 -6 -6 -5 -5 -5 -4 -4 -4 -4 -3 -3 -3 -3 -3 -3 -3 -3 -3
-8 -8 -8 -8 -8 -8 -8 -8 -9 -9 -9 -9 -8 -8 -8 -8 -8 -8 -8 -8 -8 -7 -7 -7 -6 -6 -6 -6 -5 -5 -4 -4 -4 -4 -4 -4 -3 -3 -3 -3 -3 -3 -4
-8 -8 -8 -8 -8 -9 -9 -9 -9 -9 -9 -9 -9 -8 -8 -8 -8 -8 -8 -8 -8 -8 -7 -7 -7 -6 -6 -5 -5 -5 -5 -4 -4 -4 -4 -4 -4 -4 -4 -3 -3 -3 -3
-8 -8 -8 -9 -9 -9 -9 -9 -9 -9 -9 -9 -9 -9 -9 -9 -8 -8 -8 -8 -8 -8 -7 -7 -7 -6 -6 -6 -5 -5 -5 -5 -5 -5 -4 -4 -4 -4 -4 -4 -3 -3 -4
-8 -9 -9 -9 -9 -9 -9 -9 -9 -9 -9 -9 -9 -9 -9 -9 -9 -8 -8 -8 -8 -8 -7 -7 -7 -7 -6 -6 -6 -5 -5 -5 -5 -5 -5 -4 -4 -4 -4 -4 -4 -4 -4
Wind_Speed
9 8 8 8 7 6 5 5 4 3 3 3 3 3 3 4 5 5 6 6 8 8 7 9 10 8 8 7 7 7 7 5 6 3 2 3 7 9 9 11 11 11 11
9 9 8 8 8 8 7 7 6 5 4 4 3 2 3 3 4 5 6 6 8 8 8 8 8 7 9 8 8 8 7 7 6 5 4 5 6 9 9 8 8 9 9
9 9 9 9 10 9 8 8 7 7 6 6 5 3 3 3 4 4 5 6 7 7 7 8 8 8 9 8 9 8 7 6 5 5 5 4 3 5 6 5 5 5 7
9 9 9 9 9 8 8 8 8 7 7 7 6 5 4 4 4 4 4 5 5 6 7 7 8 9 10 9 9 10 8 8 6 6 5 4 4 4 6 6 5 4 4
9 9 9 8 8 8 8 8 8 7 8 7 7 7 6 5 5 5 5 5 5 6 6 6 7 9 10 9 8 9 9 8 8 7 6 5 6 7 9 6 6 4 3
8 8 8 8 9 9 9 8 8 8 7 7 6 6 6 6 10 11 8 5 5 6 6 6 6 8 9 11 12 13 13 11 11 9 7 8 9 7 7 7 6 5 4
8 8 9 9 9 9 9 9 9 8 8 8 7 7 7 8 12 11 10 6 5 5 5 5 5 5 6 6 9 11 13 15 14 11 10 10 10 10 11 9 8 6 5
7 8 8 8 8 8 8 8 8 7 7 7 7 7 7 9 12 12 12 6 5 6 5 5 5 5 6 6 6 6 7 8 10 8 9 9 9 10 12 10 8 6 4
8 8 8 8 8 8 8 8 7 7 7 7 7 8 8 9 12 13 11 5 5 6 6 5 6 6 8 7 6 6 6 5 6 8 8 9 11 14 13 9 9 7 4
8 8 8 7 7 8 8 7 6 6 7 8 8 7 7 8 12 13 12 5 6 6 5 5 7 8 9 8 6 6 8 6 6 6 6 8 9 12 17 12 11 8 4
7 7 7 7 7 7 7 6 7 7 7 7 8 8 7 9 11 13 12 6 5 6 6 5 5 9 10 10 8 7 8 7 6 7 6 6 6 6 7 7 7 8 6
7 7 8 8 7 7 7 8 7 7 8 8 8 8 6 7 10 12 14 12 11 7 6 5 6 10 10 10 8 7 9 7 5 6 6 6 7 7 6 6 6 5 4
7 8 8 8 7 7 7 8 8 7 7 8 8 8 8 6 7 14 15 15 14 9 6 9 11 11 9 7 8 9 8 6 6 6 7 6 5 7 7 6 6 7 7
7 8 8 8 8 7 7 7 7 7 7 8 9 9 9 8 7 6 7 9 11 9 7 8 11 10 7 7 6 6 5 6 7 7 6 6 6 7 6 6 5 6 4
8 8 8 7 7 8 8 7 8 7 9 10 9 9 9 10 11 16 12 9 7 8 8 5 4 4 3 3 3 3 4 5 6 5 6 7 7 7 6 6 5 6 5
8 8 7 7 7 7 8 9 12 12 16 17 16 14 12 15 20 20 19 18 17 16 10 5 5 5 5 5 4 4 4 5 5 6 7 8 8 9 8 7 6 6 6
7 9 8 8 8 9 9 9 11 13 15 15 16 17 17 18 19 18 18 17 17 14 7 5 5 5 5 5 5 5 4 4 5 6 7 7 8 8 8 9 8 7 6
8 9 9 8 8 8 9 9 9 11 12 10 12 17 18 18 18 17 17 14 9 7 5 5 5 5 4 5 5 5 4 4 5 6 6 7 8 8 9 9 9 8 7
8 7 8 8 8 9 9 9 9 10 11 11 10 11 15 16 17 15 13 7 7 6 6 5 5 4 4 4 4 4 5 5 5 6 6 8 8 8 8 9 9 12 8
7 12 11 9 9 9 9 9 9 10 10 10 10 10 10 10 8 8 7 6 6 6 6 6 5 5 5 4 4 4 4 5 6 6 6 7 8 8 9 10 10 10 8
7 9 13 10 8 9 9 9 9 10 10 11 10 11 15 10 9 9 8 7 7 7 7 6 6 5 4 4 4 4 5 5 5 6 6 7 8 8 8 8 9 9 8
6 7 8 9 9 9 9 9 9 10 11 12 10 11 16 10 8 8 8 8 7 6 6 6 6 5 4 4 4 5 5 5 5 5 6 6 7 8 8 8 9 9 9
6 8 8 8 9 11 11 9 9 10 10 10 11 10 9 8 8 8 8 8 7 6 6 5 6 5 5 4 4 5 6 6 5 6 6 7 7 7 8 9 10 10 10
6 7 8 9 9 9 9 10 9 10 10 10 10 10 9 9 9 9 9 7 7 6 5 5 6 6 6 5 4 4 5 5 5 5 8 8 8 8 8 9 10 11 10
5 7 8 8 9 9 9 10 9 10 10 10 9 9 9 9 9 9 8 7 7 6 6 6 5 5 6 6 5 5 6 7 6 5 6 7 8 8 8 9 9 10 9
6 7 7 8 8 8 9 9 10 10 10 9 9 9 9 9 9 8 8 7 7 7 6 5 5 6 6 5 5 5 6 6 7 7 6 6 7 7 8 8 10 10 10
Wind_Direction
23 24 23 16 11 13 12 1 351 339 327 303 280 259 246 237 232 231 232 222 223 224 219 214 216 208 210 210 204 203 206 203 218 198 166 165 176 180 175 177 179 176 176
19 22 21 16 15 15 8 1 358 352 345 330 310 289 266 258 246 237 237 230 227 225 222 218 218 212 213 210 207 209 210 203 198 197 184 178 190 187 175 174 176 181 178
18 20 19 17 15 12 4 359 359 358 357 355 340 317 303 283 267 257 246 241 237 232 225 221 219 214 221 216 207 209 209 203 192 187 187 177 174 174 171 170 173 175 180
16 19 18 13 9 4 1 1 1 360 359 357 350 343 329 316 304 291 275 255 250 244 233 228 221 216 220 218 213 209 202 198 190 183 179 172 170 168 171 175 183 186 181
13 15 10 3 1 1 360 359 359 360 356 352 351 351 346 336 325 314 294 275 256 251 246 238 231 226 223 220 217 207 199 200 194 195 190 180 182 178 189 178 186 169 181
11 8 2 1 1 0 357 357 358 356 351 351 350 344 341 335 333 330 317 293 275 258 254 250 243 233 229 228 225 215 203 200 200 202 201 198 195 188 177 174 167 167 199
7 3 0 360 360 355 352 354 351 345 345 343 339 336 328 324 331 327 321 310 290 274 261 255 254 245 238 231 233 226 218 213 204 198 202 202 190 185 175 176 180 178 182
358 356 354 353 352 347 348 346 339 334 333 330 327 323 318 319 327 327 325 315 297 284 272 261 255 249 238 228 222 218 216 214 207 201 203 200 188 179 180 179 172 142 99
350 346 342 342 341 342 340 335 328 328 327 324 321 321 317 315 320 323 322 305 296 289 282 273 265 253 249 240 224 215 214 215 207 198 191 185 180 178 168 150 152 159 168
334 330 330 331 332 330 325 321 320 322 319 320 318 316 311 309 315 321 322 305 299 294 286 274 268 263 256 245 233 219 215 211 185 177 174 172 171 177 177 174 170 168 156
322 324 327 327 323 318 318 319 320 320 319 318 314 311 309 310 316 319 319 312 296 292 285 280 270 267 260 252 245 233 227 205 185 176 167 161 157 163 171 169 168 166 162
324 324 322 321 320 323 319 318 318 318 317 315 314 313 309 309 314 315 316 310 305 290 282 275 272 272 266 260 255 240 225 199 171 169 171 175 174 173 166 156 146 130 126
326 322 317 317 316 316 314 314 317 316 316 316 317 315 314 311 309 313 313 312 307 298 283 281 279 274 272 260 249 240 220 196 177 182 189 188 176 162 147 133 116 107 88
321 318 316 317 316 315 312 310 311 312 311 311 311 310 309 308 304 303 301 303 304 298 287 280 279 274 271 263 251 237 216 200 191 192 186 169 152 152 157 152 150 145 130
320 317 318 316 313 314 313 307 306 293 293 302 300 299 301 302 301 304 304 299 295 289 291 279 266 265 255 249 241 234 210 194 194 175 169 166 166 164 163 156 150 153 156
324 322 319 316 316 316 315 314 310 309 308 306 302 301 297 295 300 304 305 301 299 295 292 274 268 257 250 246 237 234 223 203 191 179 176 176 175 173 167 162 158 163 163
316 316 314 316 317 317 317 316 316 317 314 310 309 309 306 305 306 305 305 304 300 296 285 271 263 256 254 245 238 231 230 213 190 183 182 179 175 173 170 171 170 166 164
312 313 314 309 310 311 311 309 309 311 314 313 312 312 313 311 310 309 309 308 300 293 276 272 268 260 253 248 242 234 223 209 195 189 183 179 175 174 174 176 176 173 167
314 312 311 310 310 310 309 308 308 307 307 308 310 313 316 315 312 310 312 301 294 290 284 277 270 262 256 252 246 233 220 214 203 195 190 183 178 175 178 178 177 178 171
310 314 318 313 311 311 309 309 309 309 308 308 309 311 315 315 311 310 309 300 294 291 288 281 274 266 256 247 244 233 221 214 204 198 193 187 181 178 179 178 178 178 179
309 313 318 315 309 308 308 307 307 307 307 307 306 307 313 312 309 307 306 301 295 294 291 285 276 265 257 246 239 236 227 218 207 199 193 187 181 180 180 178 177 175 170
307 309 310 308 308 307 306 306 307 305 306 306 307 309 314 313 305 303 302 299 294 291 289 285 279 268 255 248 237 232 233 223 208 196 193 186 181 179 177 175 172 171 170
308 310 309 307 306 308 311 309 307 307 307 307 308 310 312 310 306 304 303 301 299 296 291 285 280 274 263 252 243 232 227 225 211 196 190 186 181 180 178 177 174 171 173
313 311 309 309 309 308 308 309 310 310 311 311 311 312 313 313 310 309 308 304 301 297 293 288 282 275 268 261 253 245 236 228 212 201 190 183 181 181 178 176 175 174 174
314 312 311 309 308 309 309 310 310 311 312 313 314 314 313 312 312 312 312 311 308 305 304 300 291 282 272 264 258 251 239 223 212 197 185 180 177 177 174 172 172 169 170
313 310 309 308 308 309 310 311 311 312 312 312 311 311 310 311 311 312 314 315 315 313 310 306 302 295 283 273 266 257 240 223 208 193 181 176 173 173 169 168 166 168 167
Height
1437 1437 1436 1436 1436 1435 1435 1434 1434 1435 1435 1435 1436 1436 1437 1438 1440 1442 1443 1444 1446 1449 1450 1452 1454 1458 1460 1463 1465 1468 1471 1473 1474 1475 1477 1480 1482 1484 1485 1487 1489 1491 1492
1439 1438 1437 1436 1435 1433 1433 1433 1432 1432 1432 1431 1431 1431 1432 1433 1434 1435 1436 1438 1440 1441 1443 1445 1447 1449 1452 1455 1457 1459 1462 1464 1466 1467 1469 1472 1474 1476 1478 1480 1482 1484 1485
1441 1439 1437 1435 1434 1432 1432 1431 1430 1429 1428 1428 1427 1427 1427 1427 1428 1429 1430 1432 1433 1435 1436 1438 1440 1442 1444 1446 1448 1450 1453 1455 1457 1459 1461 1464 1466 1468 1470 1473 1475 1477 1479
1442 1440 1438 1436 1434 1432 1431 1429 1428 1427 1426 1425 1424 1423 1423 1423 1423 1423 1424 1425 1426 1428 1429 1431 1432 1434 1436 1437 1439 1441 1444 1446 1448 1450 1452 1454 1457 1460 1463 1465 1467 1470 1472
1443 1440 1438 1436 1434 1432 1430 1429 1427 1426 1424 1423 1421 1420 1419 1419 1418 1418 1418 1419 1419 1420 1421 1423 1424 1426 1428 1430 1431 1433 1435 1437 1439 1441 1443 1446 1448 1451 1454 1457 1460 1463 1465
1443 1441 1439 1437 1434 1432 1430 1428 1426 1424 1423 1421 1419 1418 1416 1415 1415 1414 1414 1413 1413 1413 1414 1415 1417 1418 1420 1421 1423 1425 1426 1428 1430 1432 1434 1436 1438 1442 1446 1449 1452 1455 1458
1443 1441 1438 1436 1433 1431 1429 1426 1424 1422 1421 1419 1417 1415 1413 1412 1411 1410 1409 1408 1407 1407 1407 1408 1408 1410 1412 1413 1415 1416 1418 1419 1422 1424 1425 1428 1431 1435 1439 1442 1445 1447 1450
1443 1440 1437 1434 1431 1429 1427 1424 1422 1420 1417 1415 1413 1411 1409 1408 1407 1405 1404 1403 1402 1401 1401 1401 1402 1403 1404 1405 1406 1408 1409 1411 1414 1416 1419 1422 1425 1429 1432 1435 1438 1442 1445
1442 1439 1436 1433 1430 1427 1424 1422 1419 1417 1414 1412 1410 1407 1405 1403 1402 1400 1399 1397 1396 1395 1395 1395 1395 1396 1397 1398 1399 1400 1402 1404 1406 1409 1412 1414 1418 1422 1425 1428 1431 1434 1436
1441 1438 1435 1432 1429 1425 1422 1419 1416 1413 1410 1407 1405 1403 1400 1398 1397 1395 1394 1392 1391 1390 1389 1389 1389 1390 1391 1391 1392 1393 1395 1397 1400 1402 1405 1408 1411 1415 1418 1421 1424 1427 1430
1440 1437 1434 1430 1427 1423 1420 1417 1413 1409 1406 1403 1400 1398 1396 1393 1391 1390 1389 1387 1386 1384 1383 1383 1383 1384 1384 1385 1386 1388 1389 1391 1393 1395 1398 1401 1404 1407 1411 1414 1418 1421 1424
1437 1434 1431 1428 1424 1421 1417 1413 1410 1406 1402 1398 1395 1392 1391 1389 1387 1385 1384 1382 1381 1379 1378 1377 1377 1377 1378 1379 1380 1381 1383 1385 1386 1388 1391 1394 1397 1401 1404 1408 1412 1415 1419
1434 1431 1427 1424 1421 1417 1413 1409 1405 1402 1398 1395 1391 1388 1385 1384 1382 1380 1379 1377 1375 1374 1372 1371 1371 1371 1371 1372 1373 1374 1376 1378 1379 1382 1385 1388 1391 1395 1399 1402 1406 1410 1413
1430 1427 1424 1420 1416 1413 1410 1406 1402 1398 1395 1391 1388 1385 1382 1379 1377 1375 1373 1371 1370 1368 1367 1366 1366 1365 1365 1366 1366 1368 1369 1371 1373 1376 1379 1382 1385 1389 1392 1396 1399 1403 1407
1427 1424 1420 1417 1413 1409 1406 1403 1399 1396 1393 1389 1386 1383 1379 1375 1373 1371 1369 1366 1364 1363 1361 1360 1359 1359 1359 1360 1360 1361 1363 1365 1367 1369 1372 1375 1379 1382 1386 1390 1393 1397 1401
1424 1421 1417 1413 1409 1406 1402 1398 1395 1393 1389 1386 1382 1379 1375 1372 1368 1366 1363 1361 1359 1358 1356 1354 1354 1353 1354 1354 1355 1355 1357 1358 1361 1364 1366 1369 1373 1376 1380 1384 1388 1391 1395
1421 1417 1414 1410 1406 1402 1398 1394 1389 1386 1384 1381 1377 1374 1370 1367 1363 1360 1358 1355 1353 1352 1351 1349 1348 1348 1348 1349 1350 1350 1352 1353 1356 1358 1361 1364 1367 1371 1374 1378 1382 1386 1390
1418 1414 1411 1407 1403 1399 1395 1391 1386 1382 1377 1374 1372 1369 1365 1361 1358 1355 1353 1350 1348 1346 1345 1344 1344 1343 1344 1344 1345 1346 1347 1348 1351 1353 1356 1358 1362 1365 1369 1372 1376 1380 1384
1415 1411 1407 1403 1400 1396 1392 1388 1383 1379 1375 1371 1366 1363 1360 1357 1353 1351 1348 1346 1343 1342 1341 1340 1339 1339 1339 1339 1340 1341 1342 1344 1346 1348 1351 1353 1357 1360 1364 1368 1371 1376 1380
1411 1408 1404 1400 1396 1392 1388 1384 1380 1376 1372 1368 1364 1360 1356 1353 1349 1346 1344 1342 1339 1338 1336 1335 1334 1334 1334 1334 1335 1336 1338 1339 1341 1343 1346 1349 1352 1355 1359 1363 1366 1370 1374
1408 1404 1401 1397 1393 1389 1385 1381 1377 1373 1369 1365 1361 1358 1355 1351 1347 1343 1340 1338 1336 1334 1332 1331 1330 1330 1330 1330 1331 1332 1333 1335 1337 1339 1341 1344 1347 1351 1354 1358 1362 1366 1370
1404 1400 1397 1393 1389 1385 1382 1378 1374 1370 1366 1362 1357 1354 1351 1347 1343 1340 1337 1334 1331 1330 1328 1327 1326 1325 1325 1326 1326 1327 1329 1330 1332 1335 1337 1340 1343 1346 1350 1354 1357 1361 1366
1401 1397 1394 1390 1386 1382 1378 1375 1371 1367 1363 1359 1355 1351 1347 1343 1340 1336 1333 1330 1328 1325 1324 1323 1321 1320 1321 1321 1322 1323 1325 1326 1329 1331 1333 1336 1339 1342 1346 1349 1353 1357 1361
1397 1394 1390 1386 1382 1379 1375 1371 1367 1363 1359 1355 1352 1348 1344 1340 1337 1333 1330 1327 1324 1322 1320 1318 1317 1317 1317 1317 1318 1319 1321 1323 1325 1327 1330 1332 1335 1338 1342 1345 1349 1353 1358
1394 1390 1387 1383 1379 1375 1371 1368 1364 1360 1356 1352 1349 1345 1341 1337 1334 1330 1327 1324 1321 1319 1317 1315 1314 1314 1313 1314 1315 1316 1318 1320 1322 1324 1326 1329 1332 1335 1338 1342 1345 1349 1354
1391 1387 1383 1380 1376 1372 1368 1364 1361 1357 1353 1350 1346 1342 1338 1334 1331 1328 1324 1321 1319 1316 1315 1313 1312 1311 1311 1311 1312 1313 1315 1317 1319 1321 1323 1326 1329 1332 1335 1338 1342 1346 1350